Location: Avon Lake
(41.5219°N, 93.5010°W)
Time: 21:31:52
(UTC+00:00)

BlueWalker 3 - Visible Passes

Search period start: 20 February 2024 00:00
Search period end: 01 March 2024 00:00
Orbit: 486 x 500 km, 53.2° (Epoch: 20 February)

Date Brightness Start Highest point End Pass type
(mag) Time Alt. Az. Time Alt. Az. Time Alt. Az.
20 Feb 3.6 01:21:27 10° W 01:24:43 27° NNW 01:26:44 17° NNE visible
21 Feb 3.6 00:57:43 10° W 01:01:01 28° NNW 01:04:09 11° NE visible
21 Feb 5.0 02:38:13 10° NW 02:38:39 11° NNW 02:38:39 11° NNW visible
22 Feb 3.5 00:33:58 10° W 00:37:16 28° NNW 00:40:36 10° NE visible
22 Feb 4.5 02:14:28 10° NW 02:16:00 14° NNW 02:16:00 14° NNW visible
23 Feb 4.3 01:50:42 10° NW 01:52:48 14° N 01:53:17 14° N visible
24 Feb 4.3 01:26:54 10° NW 01:29:01 14° N 01:30:33 12° NNE visible
25 Feb 4.3 01:03:06 10° NW 01:05:14 14° N 01:07:23 10° NNE visible
25 Feb 5.0 02:42:04 10° NNW 02:42:15 11° NNW 02:42:15 11° NNW visible
26 Feb 4.3 00:39:16 10° NW 00:41:26 14° N 00:43:36 10° NNE visible
26 Feb 4.4 02:18:18 10° NNW 02:19:28 15° NNW 02:19:28 15° NNW visible
27 Feb 4.0 01:54:30 10° NNW 01:56:39 17° N 01:56:39 17° N visible
28 Feb 3.8 01:30:41 10° NNW 01:33:16 17° NNE 01:33:51 17° NNE visible
29 Feb 3.9 01:06:51 10° NNW 01:09:24 17° NNE 01:11:04 13° NE visible
29 Feb 4.7 02:44:40 10° NW 02:45:33 16° NW 02:45:33 16° NW visible
